Regional Weather Roundup
Issued by NWS

Home | Current Version | Previous Version | Graphics & Text | Print | Product List | Glossary On
Versions: 1 2 3 4 5 6 7 8 9 10 11 12 13 14 15 16 17 18 19 20 21 22 23 24 25 26 27 28 29 30 31 32 33 34 35 36 37 38 39 40 41 42 43 44 45 46 47 48 49 50
000
ASUS43 KTOP 271308
RWRKS

WEATHER ROUNDUP FOR KANSAS
NATIONAL WEATHER SERVICE GOODLAND KS
800 AM CDT FRI MAR 27 2015

NOTE:  "FAIR" INDICATES FEW OR NO CLOUDS BELOW 12,000 FEET WITH NO
SIGNIFICANT WEATHER AND/OR OBSTRUCTIONS TO VISIBILITY.

KSZ001>006-013>018-027>032-041>047-271400-
NORTHWEST KANSAS

CITY           SKY/WX    TMP DP  RH WIND       PRES   REMARKS
GOODLAND       CLOUDY    32  29  88 S6        30.23R
HAYS           CLOUDY    34  21  60 NE9       30.27R
HILL CITY      CLOUDY    33  30  88 CALM      30.28R
RUSSELL        CLOUDY    33  27  78 N8        30.27R
$$

KSZ061>065-074>080-084>089-271400-
SOUTHWEST KANSAS

CITY           SKY/WX    TMP DP  RH WIND       PRES   REMARKS
DODGE CITY     CLOUDY    34  29  82 NE14      30.23R WCI  25
ELKHART          N/A     38  26  62 N3          N/A
GARDEN CITY    CLOUDY    34  30  85 NE12      30.23R WCI  25
GREAT BEND     CLOUDY    34  25  69 NE13      30.26S WCI  25
LIBERAL        PTCLDY    37  28  70 NE8       30.23R
PRATT          MIX PCPN  34  32  93 N15       30.25S WCI  24
$$

KSZ066>073-081>083-090>101-271400-
SOUTHEAST KANSAS

CITY           SKY/WX    TMP DP  RH WIND       PRES   REMARKS
CHANUTE        CLOUDY    38  34  85 N13       30.23R WCI  30
COFFEYVILLE    CLOUDY    40  35  83 N17       30.21R WCI  31
HUTCHINSON     CLOUDY    35  28  75 NE9       30.27R
MEDICINE LODGE   N/A     38  32  79 N16       30.24R WCI  29
NEWTON         CLOUDY    34  25  69 N12       30.27R WCI  25
PARSONS        CLOUDY    40  34  79 N15G21    30.23R WCI  32
WICHITA INTL   CLOUDY    38  31  76 N10       30.25R WCI  31
WICHITA JABRA  CLOUDY    36  31  82 N13       30.25R WCI  27
WICHITA MCCONL CLOUDY    37  31  79 N15       30.25R WCI  28
WINFIELD       CLOUDY    39  34  82 N15       30.25R WCI  31
$$

KSZ007>012-019>026-033>040-048>060-102>105-271400-
NORTHEAST KANSAS

CITY           SKY/WX    TMP DP  RH WIND       PRES   REMARKS
CONCORDIA      MOCLDY    29  27  92 N7        30.29R
EMPORIA        MOCLDY    34  29  82 N12       30.25R WCI  25
LAWRENCE       CLEAR     30  27  88 N7        30.26R
MANHATTAN      CLOUDY    34  29  82 NE8       30.29R HAZE
MARYSVILLE     PTCLDY    30  28  93 NE5       30.29R
OLATHE IND     PTCLDY    32  29  88 N9        30.25R
OLATHE EXE     PTCLDY    34  29  82 N12       30.23R WCI  25
SALINA         MOCLDY    33  28  81 N7        30.30R
TOPEKA BILLARD MOCLDY    33  29  85 N8        30.28R
TOPEKA FORBES  MOCLDY    35  29  78 N8        30.26R
$$



USA.gov is the U.S. government's official web portal to all federal, state and local government web resources and services.